Regional Weather Roundup
Issued by NWS Cleveland, OH

Home | Current Version | Previous Version | Text Only | Print | Product List | Glossary On
Versions: 1 2 3 4 5 6 7 8 9 10 11 12 13 14 15 16 17 18 19 20 21 22 23 24 25 26 27 28 29 30 31 32 33 34 35 36 37 38 39 40 41 42 43 44 45 46 47 48 49 50
000
ASUS41 KCLE 021410
RWRCLE
OHIO REGIONAL WEATHER ROUNDUP
NATIONAL WEATHER SERVICE WILMINGTON, OH
1000 AM EDT THU OCT 02 2014

NOTE: "FAIR" INDICATES FEW OR NO CLOUDS BELOW 12,000 FEET WITH NO
SIGNIFICANT WEATHER AND/OR OBSTRUCTIONS TO VISIBILITY.

OHZ001>008-015>018-024>027-034-035-043-044-021500-
   NORTHWEST OHIO

CITY           SKY/WX    TMP DP  RH WIND       PRES   REMARKS
DEFIANCE       CLOUDY    63  54  72 SE6       29.99F
FINDLAY        PTSUNNY   62  53  72 SE12      30.01F
TOLEDO EXPRESS PTSUNNY   60  54  80 SE5       30.01F
TOLEDO METCALF MOSUNNY   61  53  75 SE8       30.03F
LIMA           CLOUDY    67  57  70 S12       30.02F
$$

OHZ009>014-019>023-028>033-038-089-021500-
   NORTHEAST OHIO

CITY           SKY/WX    TMP DP  RH WIND       PRES   REMARKS
CLE-HOPKINS    MOSUNNY   59  56  89 S8        30.10S FOG
CLE-LAKEFRONT  SUNNY     59  54  83 SE10      30.07S
CUY CO. ARPT   MOSUNNY   63  61  94 SE7       30.09S HAZE
LORAIN-ELYRIA  SUNNY     58  54  86 S7        30.08S FOG
ASHTABULA      MOSUNNY   59  57  93 SE6       30.11F FOG
AKRON-CANTON   FOG       54  53  97 S5        30.11R VSB 1/16
WOOSTER        FOG       54  53  97 SE3       30.11R VSB 1/4
MANSFIELD      SUNNY     61  55  81 S9        30.08S
YOUNGSTOWN     FOG       56  56 100 S7        30.12R VSB 1/2
$$

OHZ042-051>053-060>062-070>072-077>081-021500-
  SOUTHWEST OHIO

CITY           SKY/WX    TMP DP  RH WIND       PRES   REMARKS
CINC-COVINGTON MOSUNNY   71  59  65 S8        30.04S
CINC-LUNKEN    MOSUNNY   65  60  84 VRB3      30.05F
HAMILTON       MOSUNNY   68  59  73 S3        30.05S
DAYTON         PTSUNNY   67  57  70 S8        30.05S
WRIGHT-PAT AFB PTSUNNY   64  56  76 S5        30.04F
DAYTON GENERAL MOSUNNY   67  59  75 S8        30.04S
WILMINGTON     SUNNY     70  57  63 S8        30.06S
$$

OHZ036-037-039>041-045>050-054>059-063>069-073>076-082>088-021500-
  CENTRAL AND SOUTHEAST OHIO

CITY           SKY/WX    TMP DP  RH WIND       PRES   REMARKS
COLUMBUS       MOSUNNY   62  55  77 S3        30.07S
OSU AIRPORT    SUNNY     62  55  77 SE6       30.07S
BOLTON FIELD   SUNNY     61  57  88 SE5       30.07F
RICKENBACK AFB SUNNY     58  54  87 CALM      30.07S
NEWARK         MOSUNNY   53  51  93 CALM      30.09S FOG
MARION         SUNNY     63  54  72 S7        30.06F
LANCASTER      PTSUNNY   60  54  80 SE5       30.09S
ZANESVILLE     MOSUNNY   53  51  93 E3        30.11R
NEW PHILLY     CLOUDY    52  52 100 CALM      30.12R FOG
$$


USA.gov is the U.S. government's official web portal to all federal, state and local government web resources and services.